Simultaneous Nadir Overpasses (SNOs) Predictions

Prediction of SNOs between NOAA-20 and NOAA-19 Satellite Orbit:

Table of predicted SNOs for the next 14.0 days since TLE Epoch: 6/25/2022
Index Date (NOAA-20) Time (NOAA-20) Lat,Lon (NOAA-20) SZA (NOAA-20 ) Date (NOAA-19) Time (NOAA-19) Lat,Lon (NOAA-19) SZA (NOAA-19 ) Distance(km) Time Diff (sec)
1 07/03/2022 20:57:36 76.62,-152.96 54.52 07/03/2022 20:56:25 76.59,-154.43 54.66 38.02 71
2 07/03/2022 21:48:24 -76.77, 13.76 125.29 07/03/2022 21:47:17 -76.81, 13.75 125.23 3.90 67
3 07/03/2022 22:39:10 76.80,-179.05 54.76 07/03/2022 22:38:20 76.79,-179.06 54.77 0.81 50
4 07/03/2022 23:29:55 -76.82, -11.82 125.22 07/03/2022 23:29:17 -76.80, -11.76 125.22 2.65 38
5 07/04/2022 00:20:40 76.81, 155.55 54.77 07/04/2022 00:20:19 76.83, 155.60 54.80 2.87 21
6 07/04/2022 01:11:25 -76.83, -37.22 125.20 07/04/2022 01:11:16 -76.84, -37.10 125.20 3.05 9
7 07/04/2022 02:02:10 76.81, 130.15 54.79 07/04/2022 02:02:19 76.82, 130.08 54.80 2.14 9
8 07/04/2022 02:52:55 -76.83, -62.62 125.19 07/04/2022 02:53:16 -76.83, -62.62 125.19 0.29 21
9 07/04/2022 03:43:41 76.86, 104.57 54.86 07/04/2022 03:44:18 76.86, 104.74 54.83 4.18 37
10 07/04/2022 04:34:25 -76.84, -88.01 125.17 07/04/2022 04:35:15 -76.87, -87.96 125.17 3.44 50
11 07/04/2022 05:25:11 76.87, 79.18 54.87 07/04/2022 05:26:18 76.85, 79.22 54.83 2.08 67
12 07/04/2022 06:16:00 -77.06,-114.30 124.88 07/04/2022 06:17:11 -77.03,-112.74 125.07 39.07 71



Historial Predications of SNOs between NOAA-20 and NOAA-19
